COSMOS 1275 DEB

Satellite information

Favourite Embed

Satellite Type and Status

DEBRISIN ORBIT

Key statistics

Satellite COSMOS 1275 DEB at a glance.

Uptime

16165

Days in orbit

Revolutions

≈ 14.3

Per day

Orbit

LEO

Low Earth Orbit

Inclination

82.8

Latest

Satellite identification and parameters

Extended collection of information and parameters for COSMOS 1275 DEB.

Object identification

Identified? True

Debris? True

Object name: COSMOS 1275 DEB

International designator: 1981-053PX

Object number (NORAD): 42111

Object ID (CCSDS): 42111

Country: COMMONWEALTH OF INDEPENDENT STATES (CIS)

Current information (Y/N): Y

RCS size: SMALL

Orbital parameters

Period: 100.654 minutes

Inclination: 82.8077 deg

SMA: 7167.719 km

Apoapsis: 818.288 km

Periapsis: 760.88 km

RAAN: 148.1129 deg

Eccentricy: 0.00400463

Argument of periapsis: 124.3366 deg

Mean anomaly: 236.162 deg

Mean motion: 14.30643205 rev/day

Mean motion (dot): 0.00003578 rev/day2

B* drag term: 0.0013518331 1/REarth

Two-line elements (TLE)

Creation date: Sept. 6, 2025, 2:09 a.m.

Reference frame: TEME

Reference center: EARTH

Epoch: Sept. 5, 2025, 5:13 p.m. UTC

TLE line 0: 0 COSMOS 1275 DEB

TLE line 1: 1 42111U 81053PX 25248.71770716 .00003578 00000-0 13518-2 0 9996

TLE line 2: 2 42111 82.8077 148.1129 0040046 124.3366 236.1620 14.30643205609067

Live tracking on map

Real-time ground track for satellite COSMOS 1275 DEB.

In-orbit conjunctions

A list of the most updated potential collisions computed for object COSMOS 1275 DEB.

Target Orbit TCA Probability of collision Miss distance Type
PSLV R/B SSO 2024-10-27 07:00:43 0.0001576762 147.0 (m) ROCKET BODY
CZ-6A DEB SSO 2024-08-31 08:58:56 0.0001027795 113.0 (m) DEBRIS

Associated space launch

Navigation satellite providing location information for the Tsiklon-B navigation system

COSMOS 1275 DEB was lifted into orbit during the mission ‘Kosmos-3M | Parus 27’, on board a Kosmos-3M space rocket.

The launch took place on June 4, 1981, 3:41 p.m. from 132/2.

For more information about the launch, click the button.

Launch to space Kosmos-3M | Parus 27
Kosmos-3M | Parus 27

Agency: N/A

Status: Launch Successful

Launch date: June 4, 1981, 3:41 p.m. UTC

Rocket: Kosmos-3M

Launch pad: 132/2

Location: Plesetsk Cosmodrome, Russian Federation

...

Latest news about this satellite

There are no fresh news available about this satellite. Check back as we update our databases every day.


Newsletter sign-up

Weekly statistics, charts and insights to help you stay on top of the space industry.